Other Public Products
Issued by NWS Grand Forks, ND

Current Version | Previous Version | Text Only | Print | Product List | Glossary On
Versions: 1 2 3 4 5 6 7 8 9 10 11 12 13 14 15 16 17 18 19 20 21 22 23 24 25 26 27 28 29 30 31 32 33 34 35 36 37 38 39 40 41 42 43 44 45 46 47 48 49 50
524
FPUS83 KFGF 250531
OPUFGF
PRAIRIE TO PINES WEATHER ROUNDUP
NATIONAL WEATHER SERVICE EASTERN NORTH DAKOTA/GRAND FORKS ND
1200 AM CDT WED MAY 25 2016

 **SATELLITE DATA USED TO AUGMENT SKY COVER AT AUTOMATED STATIONS**
 *****  WEATHER ACROSS EASTERN NORTH DAKOTA  *****

CITY           SKY/WX    TMP DP  RH WIND       PRES   REMARKS
GRAND FORKS    MOCLDY    63  52  67 E8        29.89R
GRAND FORKS AF MOCLDY    63  52  68 SE6       29.89R
GRAND CITY NWS   N/A     64 N/A N/A E5          N/A
BUXTON           N/A     67  51  56 NE6         N/A
DEVILS LAKE    CLOUDY    64  54  69 SE8       29.90
FARGO          PTCLDY    68  44  42 E10       29.87R
WAHPETON ARPT  PTCLDY    68  48  49 E10       29.86R
$$

 *****  WEATHER ACROSS CENTRAL AND WESTERN NORTH DAKOTA  *****

CITY           SKY/WX    TMP DP  RH WIND       PRES   REMARKS
JAMESTOWN      NOT AVBL
BISMARCK       MOCLDY    66  49  54 E5        29.86R
MINOT          CLOUDY    61  43  51 N6        29.87R
MINOT AFB      NOT AVBL
GARRISON         N/A     63  46  54 NE6       29.86S
WILLISTON      PTCLDY    57  39  51 NE7       29.87F
DICKINSON      CLOUDY    55  47  74 E8        29.83F
HETTINGER      CLOUDY    57  46  66 NE7       29.86S
$$

 *****  OTHER OBSERVATIONS NORTHEAST NORTH DAKOTA  *****

CITY           SKY/WX    TMP DP  RH WIND       PRES   REMARKS
WALHALLA       FAIR      55  55 100 CALM      29.90S
LANGDON        FAIR      57  52  82 E6        29.91R
CAVALIER       FAIR      61  52  72 E5        29.90R
GRAFTON        FAIR      63  55  77 SE8       29.90R
CANDO          FAIR      59  45  58 NE8       29.92R
FORT TOTTEN      N/A     67  47  49 SE6       29.95S
ROLLA          FAIR      54  45  71 CALM      29.92R
RUGBY          FAIR      59  46  63 E9        29.89R
 ***** THE ABOVE OBSERVATIONS ARE NON NWS ARE NOT QUALITY
        CONTROLLED AND MAY MIS-REPORT RAIN FOR SNOW...
$$

 *****  OTHER OBSERVATIONS SOUTHEAST NORTH DAKOTA *****

CITY           SKY/WX    TMP DP  RH WIND       PRES   REMARKS
COOPERSTOWN    NOT AVBL
VALLEY CITY    FAIR      64  54  68 E8        29.90R
OAKES            N/A    N/A N/A N/A MISG        N/A
GWINNER        FAIR      64  48  55 NE7       29.86S
SHEYENNE NWR     N/A     65  46  50 E9        29.95S
BUFFALO          N/A    N/A N/A N/A CALM        N/A
WYNDMERE         N/A     66  50  55 E8          N/A
 ***** THE ABOVE OBSERVATIONS ARE NON NWS ARE NOT QUALITY
       CONTROLLED AND MAY MIS-REPORT RAIN FOR SNOW...
$$

  *****  WEATHER ACROSS NORTHERN MINNESOTA  *****

CITY           SKY/WX    TMP DP  RH WIND       PRES   REMARKS
FLAG ISLAND    CLEAR     61  54  77 SE6       29.95S
WARROAD        CLEAR     61  54  77 SE12      29.95R
ROSEAU         CLEAR     63  54  72 SE10G16   29.93S
HALLOCK        HAZE      63  50  63 E9        29.89S VSB 1
THF RVR FALLS  CLEAR     63  48  59 E12       29.93R
HALSTAD        NOT AVBL
FOSSTON        PTCLDY    57  46  67 CALM      29.94R
BAUDETTE       CLEAR     58  51  78 E12       29.95F
WASKISH        CLEAR     57  52  82 E6        29.95F
CROOKSTON      MOCLDY    64  48  55 E7        29.91R
$$
  *****  WEATHER ACROSS CENTRAL AND WEST MINNESOTA  *****

CITY           SKY/WX    TMP DP  RH WIND       PRES   REMARKS
BEMIDJI        CLEAR     56  48  74 E3        29.94S
PARK RAPIDS    CLEAR     62  53  72 E5        29.92F
WADENA         CLEAR     59  54  82 E5        29.92S
DETROIT LAKES  CLEAR     64  54  68 E7        29.93R
MOORHEAD       MOCLDY    66  48  52 E8        29.88R
FERGUS FALLS   CLEAR     66  54  63 E9        29.85R
ELBOW LAKE     FAIR      65  54  69 SE12      29.89R
MORRIS MN      PTCLDY    66  54  63 E12       29.86S
STAPLES        CLEAR     57  54  88 CALM      29.92F
WHEATON        CLEAR     68  55  64 E12       29.87R
$$
  *****  WEATHER ELSEWHERE ACROSS MINNESOTA  *****

CITY           SKY/WX    TMP DP  RH WIND       PRES   REMARKS
DULUTH         FOG       52  51  97 E9        30.01F VSB 1/2
INTRNTL FALLS  CLEAR     52  50  93 SE6       29.97S
ELY            CLEAR     54  50  87 S3        30.01F
CLOQUET        FOG       54  52  94 E9G16     30.00S VSB 1/2
BRAINERD       CLEAR     57  55  93 E5        29.93F
HIBBING        CLOUDY    56  53  90 E12       30.00R
ALEXANDRIA     PTCLDY    63  53  70 E12       29.91S
SAINT CLOUD    CLOUDY    64  53  67 NE8       29.92R
MINNEAPOLIS    PTCLDY    71  57  61 SE5       29.91S
$$

  *****  WEATHER ACROSS SOUTH DAKOTA  *****

CITY           SKY/WX    TMP DP  RH WIND       PRES   REMARKS
SIOUX FALLS    CLOUDY    71  61  70 S10       29.86R
BROOKINGS      CLOUDY    66  55  67 SE7       29.85S
WATERTOWN      PTCLDY    70  46  42 E6        29.84S
HURON          MOCLDY    68  53  58 SE9       29.79F
SISSETON         N/A     64  49  57 CALM      29.84R
ABERDEEN       MOCLDY    68  50  52 NE12      29.82S
MITCHELL       CLOUDY    70  62  76 SE10      29.79F
PIERRE         RAIN      57  55  93 NW22      29.85S
MOBRIDGE       LGT RAIN  63  52  67 W14       29.87R
RAPID CITY     MOCLDY    51  48  89 S6        29.85R
$$

  *****  SOME WEATHER IN NEARBY STATES *****

CITY           SKY/WX    TMP DP  RH WIND       PRES   REMARKS
GLASGOW MT     PTCLDY    49  42  77 NE7       29.87S
GREAT FALLS MT PTCLDY    45  38  76 S7        29.90S
CHEYENNE WY    PTCLDY    51  41  68 W8        29.89S
SCOTTSBLUFF NE MOCLDY    53  47  79 E14       29.83F
OMAHA NE       CLOUDY    72  63  73 SE10      29.87S
DES MOINES IA  CLOUDY    70  62  76 S8        29.90S
DAVENPORT IA   CLEAR     72  63  73 S8        29.95S
CHICAGO IL     MOCLDY    72  58  61 S8        29.96S
EAU CLAIRE WI  CLEAR     60  55  83 CALM      29.94R
LA CROSSE WI   CLEAR     67  59  75 CALM      29.93R
$$

  *****  SOME NATIONAL WEATHER *****

CITY           SKY/WX    TMP DP  RH WIND       PRES   REMARKS
LA GUARDIA NY  PTCLDY    64  59  83 CALM      29.99R
RALEIGH NC     PTCLDY    66  56  70 W3        30.15S
ATLANTA GA     CLEAR     70  54  56 SW3       30.18S
NEW ORLEANS LA PTCLDY    77  71  82 SE8       30.11S
OKLAHOMA CITY  CLOUDY    75  72  90 S15G29    29.88R
ALBUQUERQUE NM CLEAR     68  14  12 CALM      30.04R
SALT LAKE CITY MOCLDY    58  40  51 SE5       29.93R
LOS ANGELES CA PTCLDY    60  52  74 W9        30.05R
BOISE ID       CLOUDY    62  36  37 NW7       29.87R
SEATTLE WA     MOCLDY    59  50  72 W5        30.03R
$$

*** WEATHER ACROSS MANITOBA...SASKATCHEWAN AND ONTARIO ***
                ***ONTARIO***

CITY           SKY/WX    TMP DP  RH WIND       PRES   REMARKS
GERALDTON      MOCLDY    45  41  87 E7        30.09F
THUNDER BAY    CLOUDY    54  50  87 SE12      30.04F
SIOUX LOOKOUT  PTCLDY    48  46  93 SE2       30.02S
TORONTO        PTCLDY    64  43  45 W5        29.97F
BIG TROUT LK   CLOUDY    46  37  71 E6        30.09S
PICKLE LAKE    NOT AVBL
DRYDEN         CLEAR     52  50  93 E6        30.00S
KENORA         CLEAR     55  52  88 SE6       29.98S
$$
                *** MANITOBA***

CITY           SKY/WX    TMP DP  RH WIND       PRES   REMARKS
BRANDON        CLEAR     54  50  87 NE13      29.91F
DAUPHIN        CLOUDY    50  50 100 CALM      29.94R
ISLAND LAKE    MOCLDY    48  43  81 E7        30.02S
PILOT MOUND      N/A     57  45  62 NE7         N/A
THE PAS        PTCLDY    48  43  81 VRB2      29.96S
THOMPSON       PTCLDY    43  36  75 E2        30.03S
WINNIPEG       PTCLDY    59  48  67 SE8       29.91S
LYNN LAKE      MOCLDY    50  37  62 S7        29.95R
CHURCHILL      CLOUDY    32  25  74 SE12      30.14F WCI  23
GILLAM         CLOUDY    43  30  61 SE3       30.09R
$$
                ***SASKATCHEWAN***

CITY           SKY/WX    TMP DP  RH WIND       PRES   REMARKS
ESTEVAN        PTCLDY    46  36  66 N3        29.89S
KINDERSLEY     MOCLDY    48  45  87 N7        29.88S
LLOYDMINSTER   CLEAR     48  45  87 S9        29.89R
PRINCE ALBERT  PTCLDY    46  43  87 NE5       29.92S
REGINA         CLEAR     50  39  66 S5        29.88R
YORKTON        PTCLDY    52  50  93 E8        29.90R  C1F1C2F2C3F3C4F4C5F5C6F6C7F7C8F8C9F9CaFaCbFbCcFcCdFdCe!



USA.gov is the U.S. government's official web portal to all federal, state and local government web resources and services.